Calgary Springbank,

9:20 PM MDT on June 27, 2017 (GMT -0600)
Calgary Springbank

Weather History for CYBW - March, 2013

Change the Weather History Date:

Wednesday, March 20, 2013

  Actual Average Record
Temperature  
Mean Temperature 34 °F -  
Max Temperature 55 °F 42 °F 57 °F (2016)
Min Temperature 12 °F 20 °F -20 °F (2002)
Degree Days  
Heating Degree Days 32    
Moisture  
Dew Point 21 °F    
Average Humidity 55    
Maximum Humidity 79    
Minimum Humidity 32    
Precipitation  
Precipitation 0.00 in - - ()
Sea Level Pressure  
Sea Level Pressure 29.49 in    
Wind  
Wind Speed 6 mph ()    
Max Wind Speed 13 mph    
Max Gust Speed 21 mph    
Visibility 15.0 miles    
Events      
Averages and records for this station are not official NWS values.
T = Trace of Precipitation, MM = Missing Value Source: Averaged Metar Reports

Daily Weather History Graph

Daily Weather History Graph

Search for Another Location

Airport or City:

Trip Planner

Search our weather history database for the weather conditions in past years. The results will help you decide how hot, cold, wet, or windy it might be!

Date:

Astronomy

Mar. 20, 2013 Rise Set
Actual Time 7:39 AM MDT 7:51 PM MDT
Civil Twilight 7:06 AM MDT 8:24 PM MDT
Nautical Twilight 6:27 AM MDT 9:03 PM MDT
Astronomical Twilight 5:46 AM MDT 9:44 PM MDT
Moon 12:54 PM MDT (3/20) 3:58 AM MDT (3/20)
Length of Visible Light 13h 17m
Length of Day
12h 11m
First Quarter, 60% of the Moon is Illuminated
Mar 20
First Quarter
Mar 27
Full
Apr 2
Last Quarter
Apr 10
New
Apr 18
First Quarter

Hourly Weather History & Observations

Time (MDT) Temp. Windchill Dew Point Humidity Pressure Visibility Wind Dir Wind Speed Gust Speed Precip Events Conditions
5:00 AM 24.8 °F 13.4 °F 12.2 °F 59% 29.70 in 15.0 mi SSE 12.7 mph - N/A   Scattered Clouds
6:00 AM 17 °F - 10 °F 61% 29.70 in 15 mi ESE 5.8 mph - -   Clear
6:00 AM 17.6 °F 8.2 °F 10.4 °F 73% 29.70 in 15.0 mi ESE 6.9 mph - N/A   Partly Cloudy
7:00 AM 12.2 °F - 6.8 °F 79% 29.69 in 15.0 mi Calm Calm - N/A   Mostly Cloudy
8:00 AM 17.6 °F - 10.4 °F 73% 29.65 in 25.0 mi WNW 2.3 mph - N/A   Mostly Cloudy
9:00 AM 17.6 °F - 12.2 °F 79% 29.62 in 30.0 mi Calm Calm - N/A   Mostly Cloudy
10:00 AM 24.8 °F 19.1 °F 14.0 °F 64% 29.57 in 30.0 mi NW 4.6 mph - N/A   Mostly Cloudy
11:00 AM 32.0 °F 26.4 °F 17.6 °F 55% 29.53 in 30.0 mi Variable 5.8 mph - N/A   Mostly Cloudy
12:00 PM 37 °F - 21 °F 40% 29.49 in 28 mi West 3.5 mph - -   Scattered Clouds
12:00 PM 37.4 °F 33.8 °F 21.2 °F 52% 29.49 in 30.0 mi West 4.6 mph - N/A   Mostly Cloudy
1:00 PM 44.6 °F 43.1 °F 26.6 °F 49% 29.45 in 30.0 mi ENE 3.5 mph - N/A   Mostly Cloudy
2:00 PM 50.0 °F - 32.0 °F 50% 29.40 in 30.0 mi South 10.4 mph - N/A   Mostly Cloudy
3:00 PM 51.8 °F - 30.2 °F 44% 29.37 in 30.0 mi East 4.6 mph - N/A   Scattered Clouds
4:00 PM 53.6 °F - 26.6 °F 35% 29.34 in 30.0 mi Variable 2.3 mph - N/A   Mostly Cloudy
5:00 PM 53.6 °F - 26.6 °F 35% 29.34 in 30.0 mi WNW 3.5 mph - N/A   Mostly Cloudy
6:00 PM 51 °F - 30 °F 32% 29.37 in 28 mi West 11.5 mph - -   Partly Cloudy
6:00 PM 51.8 °F - 30.2 °F 44% 29.36 in 30.0 mi WNW 9.2 mph 20.7 mph N/A   Scattered Clouds
7:00 PM 46.4 °F 41.1 °F 28.4 °F 50% 29.38 in 30.0 mi WNW 11.5 mph - N/A   Mostly Cloudy
8:00 PM 39.2 °F 32.5 °F 24.8 °F 56% 29.39 in 30.0 mi WNW 10.4 mph - N/A   Mostly Cloudy
9:00 PM 39.2 °F 32.0 °F 26.6 °F 61% 29.39 in 15.0 mi West 11.5 mph - N/A   Mostly Cloudy
10:00 PM 37.4 °F 32.8 °F 26.6 °F 65% 29.39 in 15.0 mi NNE 5.8 mph - N/A   Mostly Cloudy